When you browse on this site, cookies collect data to enhance your experience and personalize the content and advertising you see.
Visit our Privacy Policy to learn more. By continuing to use the site, you agree to this use of cookies and data.

Tiempo cada hora Somovka

Hoy, 4 Agosto, Martes

Tiempo Temperatura Precipitaciones Viento Presión Humedad
00:00 +15°C° 0 mm 1 mps 746 mmHg 76%
01:00 +14°C° 0 mm 1 mps 746 mmHg 77%
02:00 +14°C° 0 mm 1 mps 746 mmHg 80%
03:00 +14°C° 0 mm 1 mps 746 mmHg 81%
04:00 +14°C° 0 mm 1 mps 746 mmHg 81%
05:00 +14°C° 0 mm 1 mps 746 mmHg 81%
06:00 +16°C° 0 mm 1 mps 746 mmHg 76%
07:00 +19°C° 0 mm 1 mps 747 mmHg 72%
08:00 +21°C° 0 mm 1 mps 747 mmHg 66%
09:00 +21°C° 0 mm 1 mps 747 mmHg 62%
10:00 +22°C° 0 mm 1 mps 747 mmHg 59%
11:00 +23°C° 0 mm 1 mps 747 mmHg 56%
12:00 +24°C° 0 mm 1 mps 747 mmHg 55%
13:00 +24°C° 0 mm 1 mps 747 mmHg 54%
14:00 +24°C° 0 mm 1 mps 747 mmHg 52%
15:00 +24°C° 0 mm 1 mps 747 mmHg 54%
16:00 +24°C° 0 mm 1 mps 746 mmHg 56%
17:00 +24°C° 0 mm 1 mps 746 mmHg 58%
18:00 +22°C° 0 mm 1 mps 746 mmHg 62%
19:00 +21°C° 0 mm 1 mps 746 mmHg 66%
20:00 +18°C° 0 mm 2 mps 747 mmHg 71%
21:00 +17°C° 0 mm 2 mps 747 mmHg 72%
22:00 +17°C° 0 mm 2 mps 747 mmHg 73%
23:00 +16°C° 0 mm 2 mps 747 mmHg 74%

Mañana, 5 Agosto, Miércoles

Tiempo Temperatura Precipitaciones Viento Presión Humedad
00:00 +16°C° 0 mm 2 mps 747 mmHg 76%
01:00 +16°C° 0 mm 2 mps 747 mmHg 78%
02:00 +15°C° 0 mm 2 mps 747 mmHg 79%
03:00 +15°C° 0 mm 2 mps 747 mmHg 80%
04:00 +15°C° 0 mm 2 mps 747 mmHg 80%
05:00 +15°C° 0 mm 2 mps 747 mmHg 81%
06:00 +17°C° 0 mm 2 mps 747 mmHg 76%
07:00 +19°C° 0 mm 2 mps 747 mmHg 71%
08:00 +21°C° 0 mm 2 mps 748 mmHg 65%
09:00 +23°C° 0 mm 2 mps 748 mmHg 62%
10:00 +24°C° 0 mm 2 mps 748 mmHg 58%
11:00 +25°C° 0 mm 1 mps 748 mmHg 54%
12:00 +25°C° 0 mm 1 mps 748 mmHg 52%
13:00 +26°C° 0 mm 1 mps 748 mmHg 51%
14:00 +24°C° 0 mm 0 mps 747 mmHg 49%
15:00 +24°C° 0 mm 0 mps 747 mmHg 52%
16:00 +24°C° 0 mm 0 mps 747 mmHg 55%
17:00 +24°C° 0 mm 0 mps 747 mmHg 57%
18:00 +24°C° 0 mm 1 mps 747 mmHg 62%
19:00 +22°C° 0 mm 1 mps 748 mmHg 66%
20:00 +20°C° 0 mm 1 mps 748 mmHg 70%
21:00 +20°C° 0 mm 1 mps 748 mmHg 72%
22:00 +19°C° 0 mm 1 mps 748 mmHg 74%
23:00 +19°C° 0 mm 1 mps 748 mmHg 77%

Pasado mañana, 6 Agosto, Jueves

Tiempo Temperatura Precipitaciones Viento Presión Humedad
00:00 +18°C° 0 mm 1 mps 748 mmHg 78%
01:00 +18°C° 0 mm 1 mps 748 mmHg 80%
02:00 +18°C° 0 mm 1 mps 748 mmHg 81%
03:00 +16°C° 0 mm 0 mps 748 mmHg 81%
04:00 +16°C° 0 mm 0 mps 748 mmHg 81%
05:00 +16°C° 0 mm 0 mps 749 mmHg 81%
06:00 +18°C° 0 mm 0 mps 749 mmHg 76%
07:00 +21°C° 0 mm 1 mps 749 mmHg 71%
08:00 +23°C° 0 mm 1 mps 749 mmHg 66%
09:00 +24°C° 0 mm 1 mps 749 mmHg 62%
10:00 +25°C° 0 mm 2 mps 749 mmHg 58%
11:00 +26°C° 0 mm 2 mps 749 mmHg 54%
12:00 +27°C° 0 mm 2 mps 749 mmHg 53%
13:00 +27°C° 0 mm 2 mps 749 mmHg 51%
14:00 +28°C° 0 mm 2 mps 749 mmHg 50%
15:00 +27°C° 0 mm 2 mps 748 mmHg 53%
16:00 +27°C° 0 mm 1 mps 748 mmHg 57%
17:00 +27°C° 0 mm 1 mps 748 mmHg 60%
18:00 +25°C° 0 mm 1 mps 748 mmHg 64%
19:00 +24°C° 0 mm 1 mps 748 mmHg 68%
20:00 +20°C° 0 mm 0 mps 748 mmHg 72%
21:00 +21°C° 0 mm 1 mps 748 mmHg 75%
22:00 +21°C° 0 mm 1 mps 748 mmHg 77%
23:00 +21°C° 0 mm 1 mps 748 mmHg 80%

7 Agosto, Viernes

Tiempo Temperatura Precipitaciones Viento Presión Humedad
00:00 +19°C° 0 mm 2 mps 748 mmHg 84%
01:00 +19°C° 0 mm 2 mps 748 mmHg 89%
02:00 +18°C° 0 mm 3 mps 748 mmHg 93%
03:00 +18°C° 0 mm 3 mps 748 mmHg 93%
04:00 +18°C° 0 mm 3 mps 748 mmHg 94%
05:00 +18°C° 0 mm 4 mps 748 mmHg 94%
06:00 +19°C° 0 mm 4 mps 749 mmHg 87%
07:00 +20°C° 0 mm 5 mps 749 mmHg 80%
08:00 +21°C° 0 mm 5 mps 749 mmHg 73%
09:00 +22°C° 0 mm 5 mps 749 mmHg 67%
10:00 +23°C° 0 mm 6 mps 749 mmHg 61%
11:00 +23°C° 0 mm 6 mps 749 mmHg 56%
12:00 +23°C° 0 mm 6 mps 749 mmHg 56%
13:00 +24°C° 0 mm 6 mps 749 mmHg 57%
14:00 +24°C° 0 mm 6 mps 748 mmHg 57%
15:00 +23°C° 0 mm 5 mps 748 mmHg 60%
16:00 +23°C° 0 mm 5 mps 748 mmHg 63%
17:00 +23°C° 0 mm 4 mps 748 mmHg 66%
18:00 +21°C° 0 mm 4 mps 748 mmHg 70%
19:00 +20°C° 0 mm 4 mps 749 mmHg 74%
20:00 +18°C° 0 mm 3 mps 749 mmHg 78%
21:00 +18°C° 0 mm 3 mps 749 mmHg 79%
22:00 +17°C° 0 mm 3 mps 749 mmHg 80%
23:00 +16°C° 0 mm 3 mps 749 mmHg 81%

8 Agosto, Sábado

Tiempo Temperatura Precipitaciones Viento Presión Humedad
00:00 +16°C° 0 mm 3 mps 749 mmHg 82%
01:00 +14°C° 0 mm 3 mps 749 mmHg 82%
02:00 +14°C° 0 mm 3 mps 749 mmHg 83%
03:00 +13°C° 0 mm 3 mps 749 mmHg 86%
04:00 +13°C° 0 mm 3 mps 749 mmHg 88%
05:00 +13°C° 0 mm 3 mps 749 mmHg 90%
06:00 +15°C° 0 mm 4 mps 749 mmHg 84%
07:00 +17°C° 0 mm 4 mps 749 mmHg 78%
08:00 +19°C° 0 mm 5 mps 749 mmHg 71%
09:00 +20°C° 0 mm 5 mps 749 mmHg 67%
10:00 +21°C° 0 mm 5 mps 748 mmHg 63%
11:00 +22°C° 0 mm 5 mps 748 mmHg 59%
12:00 +22°C° 0 mm 5 mps 748 mmHg 57%
13:00 +23°C° 0 mm 5 mps 747 mmHg 56%
14:00 +23°C° 0 mm 5 mps 747 mmHg 54%
15:00 +23°C° 0 mm 4 mps 747 mmHg 58%
16:00 +22°C° 0 mm 4 mps 747 mmHg 61%
17:00 +22°C° 0 mm 4 mps 746 mmHg 64%
18:00 +20°C° 0 mm 3 mps 746 mmHg 68%
19:00 +19°C° 0 mm 3 mps 746 mmHg 72%
20:00 +17°C° 0 mm 3 mps 746 mmHg 76%
21:00 +16°C° 0 mm 3 mps 746 mmHg 77%
22:00 +14°C° 0 mm 3 mps 746 mmHg 78%
23:00 +15°C° 0 mm 2 mps 746 mmHg 79%

9 Agosto, Domingo

Tiempo Temperatura Precipitaciones Viento Presión Humedad
00:00 +14°C° 0 mm 2 mps 746 mmHg 81%
01:00 +14°C° 0 mm 2 mps 745 mmHg 82%
02:00 +13°C° 0 mm 2 mps 745 mmHg 84%
03:00 +13°C° 0 mm 2 mps 745 mmHg 85%
04:00 +13°C° 0 mm 2 mps 745 mmHg 86%
05:00 +13°C° 0 mm 2 mps 745 mmHg 86%
06:00 +15°C° 0 mm 2 mps 745 mmHg 81%
07:00 +17°C° 0 mm 3 mps 745 mmHg 76%
08:00 +18°C° 0 mm 3 mps 744 mmHg 70%
09:00 +19°C° 0.1 mm 3 mps 744 mmHg 67%
10:00 +20°C° 0.1 mm 3 mps 744 mmHg 63%
11:00 +21°C° 0.1 mm 4 mps 744 mmHg 60%
12:00 +21°C° 0.2 mm 4 mps 744 mmHg 59%
13:00 +21°C° 0.2 mm 4 mps 743 mmHg 58%
14:00 +21°C° 0.2 mm 4 mps 743 mmHg 57%
15:00 +21°C° 0.1 mm 3 mps 743 mmHg 58%
16:00 +21°C° 0.1 mm 3 mps 743 mmHg 60%
17:00 +20°C° 0.1 mm 3 mps 742 mmHg 61%
18:00 +19°C° 0 mm 2 mps 742 mmHg 67%
19:00 +17°C° 0 mm 2 mps 742 mmHg 72%
20:00 +15°C° 0 mm 1 mps 742 mmHg 77%
21:00 +15°C° 0 mm 2 mps 742 mmHg 80%
22:00 +14°C° 0 mm 2 mps 742 mmHg 83%
23:00 +14°C° 0 mm 2 mps 742 mmHg 85%
Mostrar más